Location: Peralejo
(40.5415°N, 4.1259°W)
Time: 22:57:22
(UTC+00:00)

Cosmos 1782 Rocket - Pass Details

Date: 18 April 2024
Orbit: 604 x 628 km, 82.5° (Epoch: 23 May)

Event Time Altitude Azimuth Distance (km) Brightness Sun altitude
Rises 19:25:48 0° 185° (S) 2,862 6.8 -5.6°
Reaches altitude 10° 19:28:00 10° 185° (S) 1,966 6.0 -6.0°
Maximum altitude 19:32:21 85° 95° (E) 625 3.6 -6.8°
Drops below altitude 10° 19:36:47 10° 9° (N) 1,998 6.3 -7.6°
Sets 19:39:02 0° 9° (N) 2,912 7.2 -8.0°
